This is the latest recevied weather packets stored in our database for station/object KN6CW-3. If no packets are shown the sender has not sent any weather packets the latest 10 day(s).
| Time | Temp. | Humidity | Pressure | Rain* | Wind** | Luminosity | Snow |
|---|---|---|---|---|---|---|---|
| 1777760128 | 8.89° C | 50% | 1011.9 hPa | 0 mm | - | 49 W/m² | - |
| 1777759827 | 8.89° C | 50% | 1011.9 hPa | 0 mm | - | 62 W/m² | - |
| 1777759527 | 8.89° C | 50% | 1011.8 hPa | 0 mm | - | 77 W/m² | - |
| 1777759227 | 8.89° C | 50% | 1011.9 hPa | 0 mm | - | 93 W/m² | - |
| 1777758926 | 8.89° C | 50% | 1011.9 hPa | 0 mm | - | 105 W/m² | - |
| 1777758626 | 9.44° C | 50% | 1011.9 hPa | 0 mm | - | 113 W/m² | - |
| 1777758326 | 9.44° C | 47% | 1011.9 hPa | 0 mm | - | 98 W/m² | - |
| 1777758025 | 9.44° C | 46% | 1011.8 hPa | 0 mm | - | 95 W/m² | - |
| 1777757725 | 10° C | 46% | 1011.6 hPa | 0 mm | - | 90 W/m² | - |
| 1777757425 | 10° C | 48% | 1011.6 hPa | 0 mm | - | 160 W/m² | - |
| 1777757124 | 10° C | 46% | 1011.6 hPa | 0 mm | - | 272 W/m² | - |
| 1777756824 | 9.44° C | 48% | 1011.5 hPa | 0 mm | - | 255 W/m² | - |
| 1777756524 | 9.44° C | 47% | 1011.5 hPa | 0 mm | - | 179 W/m² | - |
| 1777756224 | 10° C | 47% | 1011.4 hPa | 0 mm | - | 160 W/m² | - |
| 1777755923 | 10° C | 46% | 1011.4 hPa | 0 mm | - | 183 W/m² | - |
| 1777755623 | 10° C | 48% | 1011.4 hPa | 0 mm | - | 200 W/m² | - |
| 1777755323 | 10.56° C | 46% | 1011.4 hPa | 0 mm | - | 193 W/m² | - |
| 1777755022 | 10° C | 48% | 1011.3 hPa | 0 mm | - | 330 W/m² | - |
| 1777754722 | 10° C | 49% | 1011.3 hPa | 0 mm | - | 225 W/m² | - |
| 1777754422 | 10° C | 49% | 1011.5 hPa | 0 mm | - | 169 W/m² | - |
| 1777754122 | 10° C | 47% | 1011.5 hPa | 0 mm | - | 163 W/m² | - |
| 1777753821 | 10.56° C | 44% | 1011.5 hPa | 0 mm | - | 172 W/m² | - |
| 1777753521 | 10° C | 46% | 1011.5 hPa | 0 mm | - | 738 W/m² | - |
| 1777753221 | 9.44° C | 50% | 1011.5 hPa | 0 mm | - | 288 W/m² | - |
| 1777752956 | 10° C | 46% | 1011.6 hPa | 0 mm | - | 281 W/m² | - |
* Rain latest hour (hover to see other rain measurements)
** Current wind speed in m/s (hover to see current wind gust speed)